Home   Weather   Modena   Past weeks

Flag for Italy Past Weather in Modena, Italy — Yesterday and Last 2 Weeks

57 °F

Partly cloudy.

Feels Like: 57 °F
Forecast: 46 / 63 °F
Wind: 5 mph from Northwest

Location: Bologna / Borgo Panigale

Current Time: Oct 27, 2016 at 5:00:48 AM

Latest Report: Oct 27, 2016 at 4:20 AM

Visibility: 1 mi

Pressure: 30.24 "Hg

Humidity: 100%

Dew Point: 57 °F

Location of ModenaLocation

Past Weather in Modena — Graph


Modena Temperature Yesterday

Maximum temperature yesterday: 61 °F (at 1:20 PM)
Minimum temperature yesterday: 54 °F (at 4:20 AM)
Average temperature yesterday: 58 °F

High & Low Weather Summary for the Past Weeks

High68 °F (Oct 16, 2:50 PM)100% (Oct 14, 6:20 AM)30.27 "Hg (Oct 14, 6:20 AM)
Low41 °F (Oct 22, 7:50 AM)37% (Oct 12, 3:20 PM)29.83 "Hg (Oct 14, 11:50 PM)
Average56 °F87%30.07 "Hg
* Reported Oct 12 4:50 AM — Oct 27 3:50 AM, Modena, Weather by CustomWeather, © 2016

Note: Actual official high and low records may vary slightly from our data, if they occured in-between our weather recording intervals... More about our weather records


Modena Weather History for the Previous 24 Hours

Scroll right to see more
Time TempWeatherWind HumidityBarometerVisibility
3:50 AM
Thu, Oct 27
57 °FFog.5 mph100%30.24 "Hg1 mi
3:20 AM59 °FFog.3 mph100%30.24 "Hg1 mi
2:50 AM59 °FFog.2 mph94%30.24 "Hg1 mi
1:50 AM59 °FFog.3 mph94%30.21 "Hg1 mi
1:20 AM59 °FFog.5 mph94%30.21 "Hg1 mi
12:50 AM59 °FDrizzle. Fog.5 mph94%30.21 "Hg1 mi
12:20 AM59 °FFog.3 mph94%30.21 "Hg1 mi
11:50 PM
Wed, Oct 26
59 °FFog.3 mph94%30.21 "Hg1 mi
11:20 PM59 °FFog.2 mph94%30.18 "Hg1 mi
10:50 PM59 °FLight rain. Fog.1 mph94%30.18 "Hg1 mi
10:20 PM59 °FFog.2 mph94%30.18 "Hg1 mi
9:50 PM59 °FFog.2 mph94%30.18 "Hg1 mi
9:20 PM59 °FDrizzle. Fog.5 mph94%30.18 "Hg1 mi
8:50 PM59 °FLight rain. Fog.2 mph94%30.18 "Hg2 mi
8:20 PM59 °FFog.No wind94%30.18 "Hg3 mi
7:50 PM59 °FFog.2 mph94%30.15 "Hg3 mi
7:20 PM59 °FFog.3 mph94%30.15 "Hg3 mi
6:50 PM59 °FFog.2 mph94%30.15 "Hg3 mi
6:20 PM61 °FFog.2 mph83%30.15 "Hg3 mi
5:50 PM61 °FFog.No wind83%30.15 "Hg3 mi
5:20 PM61 °FBroken clouds.2 mph88%30.18 "Hg4 mi
4:50 PM61 °FPartly sunny.1 mph83%30.18 "Hg4 mi
4:20 PM61 °FFog.2 mph83%30.18 "Hg3 mi
3:50 PM61 °FFog.5 mph83%30.18 "Hg3 mi
3:20 PM61 °FFog.5 mph83%30.18 "Hg3 mi
2:50 PM61 °FFog.5 mph83%30.21 "Hg3 mi
2:20 PM61 °FBroken clouds.3 mph88%30.21 "Hg4 mi
1:50 PM61 °FBroken clouds.3 mph83%30.21 "Hg4 mi
1:20 PM61 °FBroken clouds.3 mph83%30.21 "Hg4 mi
12:50 PM59 °FBroken clouds.5 mph88%30.21 "Hg4 mi
12:20 PM59 °FBroken clouds.5 mph82%30.21 "Hg4 mi
11:50 AM59 °FFog.2 mph88%30.21 "Hg3 mi
11:20 AM59 °FFog.3 mph82%30.21 "Hg3 mi
10:50 AM57 °FFog.1 mph88%30.21 "Hg3 mi
10:20 AM57 °FFog.No wind94%30.21 "Hg3 mi
9:50 AM57 °FFog.No wind88%30.21 "Hg2 mi
9:20 AM55 °FFog.1 mph94%30.21 "Hg2 mi
8:50 AM54 °FFog.2 mph100%30.21 "Hg2 mi
8:20 AM54 °FFog.2 mph94%30.18 "Hg2 mi
7:50 AM54 °FFog.2 mph94%30.18 "Hg3 mi
7:20 AM55 °FFog.2 mph88%30.18 "Hg3 mi
6:50 AM55 °FClear.5 mph88%30.18 "Hg4 mi
6:20 AM54 °FFog.6 mph94%30.18 "Hg3 mi
5:50 AM54 °FFog.7 mph94%30.18 "Hg2 mi
5:20 AM54 °FFog.6 mph94%30.18 "Hg1 mi
Weather by CustomWeather, © 2016

See weather overviewHow to use our weather pages